This is the latest recevied weather packets stored in our database for station/object OK1PHM-12. If no packets are shown the sender has not sent any weather packets the latest 10 day(s).
| Time | Temp. | Humidity | Pressure | Rain* | Wind** | Luminosity | Snow |
|---|---|---|---|---|---|---|---|
| 1778119124 | 13.33° C | 92% | 1010.1 hPa | - | - | - | - |
| 1778118223 | 12.78° C | 92% | 1010 hPa | - | - | - | - |
| 1778117322 | 13.33° C | 91% | 1009.9 hPa | - | - | - | - |
| 1778116421 | 13.33° C | 91% | 1009.7 hPa | - | - | - | - |
| 1778115520 | 13.33° C | 92% | 1009.5 hPa | - | - | - | - |
| 1778114620 | 13.33° C | 92% | 1009.5 hPa | - | - | - | - |
| 1778113719 | 13.33° C | 93% | 1009.3 hPa | - | - | - | - |
| 1778112818 | 13.33° C | 93% | 1009.2 hPa | - | - | - | - |
| 1778111917 | 13.33° C | 93% | 1009 hPa | - | - | - | - |
| 1778111016 | 13.89° C | 93% | 1009.1 hPa | - | - | - | - |
| 1778110116 | 13.89° C | 92% | 1009 hPa | - | - | - | - |
| 1778109215 | 13.89° C | 90% | 1008.4 hPa | - | - | - | - |
| 1778108314 | 13.89° C | 90% | 1008.2 hPa | - | - | - | - |
| 1778107413 | 14.44° C | 87% | 1008.7 hPa | - | - | - | - |
| 1778106512 | 14.44° C | 86% | 1008.8 hPa | - | - | - | - |
| 1778105611 | 14.44° C | 89% | 1008.7 hPa | - | - | - | - |
| 1778104711 | 13.89° C | 90% | 1009.2 hPa | - | - | - | - |
| 1778103810 | 13.89° C | 91% | 1009.1 hPa | - | - | - | - |
| 1778102909 | 13.33° C | 91% | 1008.4 hPa | - | - | - | - |
| 1778102008 | 13.89° C | 90% | 1007.6 hPa | - | - | - | - |
| 1778101107 | 13.89° C | 89% | 1007.6 hPa | - | - | - | - |
| 1778100206 | 13.89° C | 87% | 1007.4 hPa | - | - | - | - |
| 1778099306 | 13.89° C | 87% | 1007.2 hPa | - | - | - | - |
| 1778098405 | 13.89° C | 88% | 1007.1 hPa | - | - | - | - |
| 1778097504 | 13.89° C | 88% | 1007.2 hPa | - | - | - | - |
* Rain since midnight (hover to see other rain measurements)
** Current wind speed in m/s (hover to see current wind gust speed)